Flight Track Log - Related Links

Times and Time Zones

All times are in EDT time to prevent confusion due to time zone crossing. See the LOF3416 flight status page for this flight to view local times or setup timezone preferences in your user account.

Time Position Orientation Groundspeed Altitude Reporting Facility
EDT Latitude Longitude Course Direction KTS MPH feet Rate Location/Type
Fri 09:46:18 PM 41.9167 -87.9167 169° South 185 213 2,600  Level Chicago TRACON
Fri 09:47:24 PM 41.8500 -87.9000 169° South 219 252 4,700 1,868 Climbing Chicago TRACON
Fri 09:48:04 PM 41.8167 -87.9267 211° Southwest 225 259 5,900 2,176 Climbing Chicago Center
Fri 09:49:06 PM 41.7539 -87.9650 204° Southwest 247 284 8,400 2,244 Climbing Chicago Center
Fri 09:50:07 PM 41.6878 -88.0067 205° Southwest 260 299 10,500 1,707 Climbing Chicago Center
Fri 09:51:09 PM 41.6175 -88.0500 205° Southwest 275 316 11,900 1,463 Climbing Chicago Center
Fri 09:52:10 PM 41.5406 -88.0969 205° Southwest 304 350 13,500 1,756 Climbing Chicago Center
Fri 09:53:12 PM 41.4478 -88.1533 204° Southwest 313 360 15,500 1,707 Climbing Chicago Center
Fri 09:54:13 PM 41.3675 -88.1986 203° Southwest 324 373 17,000 1,721 Climbing Chicago Center
Fri 09:55:14 PM 41.2836 -88.2350 198° South 323 372 19,000 2,049 Climbing Chicago Center
Fri 09:56:16 PM 41.2025 -88.2725 199° South 314 361 21,200 1,902 Climbing Chicago Center
Fri 09:57:17 PM 41.1253 -88.3075 199° South 301 346 22,900 1,805 Climbing Chicago Center
Fri 09:58:19 PM 41.0344 -88.3481 199° South 292 336 24,900 1,776 Climbing Chicago Center
Fri 09:59:22 PM 40.9608 -88.3806 198° South 284 327 26,600 1,488 Climbing Chicago Center
Fri 10:00:24 PM 40.8908 -88.4128 199° South 272 313 28,000 683 Climbing Chicago Center
Fri 10:01:25 PM 40.8228 -88.4606 208° Southwest 288 331 28,000  Level Chicago Center
Fri 10:02:26 PM 40.7650 -88.5469 229° Southwest 314 361 28,000  Level Chicago Center
Fri 10:03:28 PM 40.7039 -88.6392 229° Southwest 332 382 28,000  Level Chicago Center
Fri 10:04:29 PM 40.6264 -88.7550 229° Southwest 350 403 28,000  Level Chicago Center
Fri 10:05:30 PM 40.5583 -88.8539 228° Southwest 362 417 28,000  Level Chicago Center
Fri 10:06:32 PM 40.4997 -88.9392 228° Southwest 367 422 28,000  Level Chicago Center
Fri 10:07:33 PM 40.4175 -89.0617 229° Southwest 370 426 28,000  Level Chicago Center
Fri 10:08:34 PM 40.3478 -89.1622 228° Southwest 370 426 28,000  Level Chicago Center
Fri 10:09:36 PM 40.2778 -89.2636 228° Southwest 372 428 28,000  Level Chicago Center
Fri 10:10:37 PM 40.2081 -89.3633 228° Southwest 371 427 28,000  Level Chicago Center
Fri 10:11:38 PM 40.1392 -89.4642 228° Southwest 370 426 28,000  Level Chicago Center
Fri 10:12:25 PM 40.0822 -89.5447 227° Southwest 371 427 28,000  Level Kansas City Center
Fri 10:13:26 PM 40.0136 -89.6447 228° Southwest 370 426 28,000  Level Kansas City Center
Fri 10:14:30 PM 39.9436 -89.7442 227° Southwest 370 426 28,000  Level Kansas City Center
Fri 10:15:30 PM 39.8742 -89.8439 228° Southwest 371 427 28,000  Level Kansas City Center
Fri 10:16:31 PM 39.8047 -89.9431 228° Southwest 370 426 28,000 -98 Level Kansas City Center
Fri 10:17:32 PM 39.7353 -90.0417 228° Southwest 370 426 27,800 -545 Descending Kansas City Center
Fri 10:18:32 PM 39.6681 -90.1367 227° Southwest 374 430 26,900 -885 Descending Kansas City Center
Fri 10:19:34 PM 39.5803 -90.2617 228° Southwest 387 445 26,000 -439 Descending Kansas City Center
Fri 10:20:35 PM 39.5056 -90.3678 228° Southwest 396 456 26,000  Level Kansas City Center
Fri 10:21:35 PM 39.4328 -90.4703 227° Southwest 392 451 26,000  Level Kansas City Center
Fri 10:22:37 PM 39.3606 -90.5722 228° Southwest 389 448 26,000  Level Kansas City Center
Fri 10:23:40 PM 39.2883 -90.6728 227° Southwest 386 444 26,000  Level Kansas City Center
Fri 10:24:41 PM 39.2164 -90.7731 227° Southwest 385 443 26,000  Level Kansas City Center
Fri 10:25:41 PM 39.1458 -90.8706 227° Southwest 379 436 26,000  Level Kansas City Center
Fri 10:26:41 PM 39.0719 -90.9703 226° Southwest 384 442 26,000  Level Kansas City Center
Fri 10:27:45 PM 38.9850 -91.0914 227° Southwest 387 445 26,000  Level Kansas City Center
Fri 10:28:44 PM 38.9128 -91.1903 227° Southwest 385 443 26,000  Level Kansas City Center
Fri 10:29:46 PM 38.8397 -91.2922 227° Southwest 388 447 26,000  Level Kansas City Center
Fri 10:30:46 PM 38.7656 -91.3914 226° Southwest 387 445 26,000  Level Kansas City Center
Fri 10:31:50 PM 38.6850 -91.5022 227° Southwest 388 447 26,000  Level Kansas City Center
Fri 10:32:51 PM 38.6097 -91.6025 226° Southwest 389 448 26,000  Level Kansas City Center
Fri 10:33:52 PM 38.5347 -91.7033 226° Southwest 390 449 26,000  Level Kansas City Center
Fri 10:34:53 PM 38.4594 -91.8042 226° Southwest 390 449 26,000  Level Kansas City Center
Fri 10:35:54 PM 38.3842 -91.9050 226° Southwest 391 450 26,000  Level Kansas City Center
Fri 10:36:55 PM 38.3089 -92.0053 226° Southwest 391 450 26,000  Level Kansas City Center
Fri 10:37:57 PM 38.2336 -92.1047 226° Southwest 390 449 26,000  Level Kansas City Center
Fri 10:38:58 PM 38.1528 -92.2117 226° Southwest 392 451 26,000 -800 Level Kansas City Center
Fri 10:39:57 PM 38.0758 -92.3131 226° Southwest 397 457 24,400 -1,815 Descending Kansas City Center
Fri 10:40:57 PM 37.9989 -92.4211 228° Southwest 412 474 22,400 -2,066 Descending Kansas City Center
Fri 10:41:59 PM 37.9283 -92.5392 233° Southwest 396 456 20,200 -1,984 Descending Kansas City Center
Fri 10:43:01 PM 37.8847 -92.6436 242° Southwest 376 433 18,300 -1,756 Descending Kansas City Center
Fri 10:44:02 PM 37.8114 -92.7303 223° Southwest 366 421 16,600 -1,574 Descending Kansas City Center
Fri 10:45:03 PM 37.7361 -92.8172 222° Southwest 346 398 15,100 -1,707 Descending Kansas City Center
Fri 10:46:05 PM 37.6697 -92.8969 224° Southwest 333 383 13,100 -1,935 Descending Kansas City Center
Fri 10:47:07 PM 37.6028 -92.9739 222° Southwest 329 379 11,100 -1,805 Descending Kansas City Center
Fri 10:48:08 PM 37.5383 -93.0478 222° Southwest 322 371 9,400 -1,765 Descending Kansas City Center
Fri 10:49:06 PM 37.4806 -93.1119 221° Southwest 297 342 7,600 -1,785 Descending Kansas City Center
Fri 10:50:09 PM 37.4233 -93.1761 222° Southwest 283 326 5,800 -1,680 Descending Kansas City Center
Fri 10:51:11 PM 37.3564 -93.2203 208° Southwest 285 328 4,100 -942 Descending Kansas City Center
Fri 10:52:10 PM 37.2811 -93.2561 201° Southwest 257 296 3,900 -300 Descending Kansas City Center
Fri 10:53:11 PM 37.2244 -93.2819 200° South 234 269 3,500 -590 Descending Kansas City Center
Fri 10:54:12 PM 37.1631 -93.3103 200° South 230 265 2,700 -541 Descending Kansas City Center
Fri 10:55:13 PM 37.1442 -93.3594 244° Southwest 198 228 2,400 -148 Descending Kansas City Center
Fri 10:56:14 PM 37.1625 -93.4008 299° West 160 184 2,400 -98 Level Kansas City Center
Fri 10:57:15 PM 37.1908 -93.4092 347° North 132 152 2,200 -197 Descending Kansas City Center

Login

Don't have an account? Register now (free) for customized features, flight alerts, and more!